Regional Weather Roundup
Issued by NWS

Home | Current Version | Previous Version | Graphics & Text | Print | Product List | Glossary On
Versions: 1 2 3 4 5 6 7 8 9 10 11 12 13 14 15 16 17 18 19 20 21 22 23 24 25 26 27 28 29 30 31 32 33 34 35 36 37 38 39 40 41 42 43 44 45 46 47 48 49 50
000
ASUS43 KFSD 200610
RWRSD

WEATHER ROUNDUP FOR SOUTH DAKOTA
NATIONAL WEATHER SERVICE SIOUX FALLS SD
100 AM CDT SAT SEP 20 2014

NOTE: "FAIR" INDICATES FEW OR NO CLOUDS BELOW 12,000 FEET WITH NO
SIGNIFICANT WEATHER AND/OR OBSTRUCTIONS TO VISIBILITY.


SDZ001>005-009-010-012>017-200700-
NORTHWEST AND NORTH CENTRAL SOUTH DAKOTA

CITY           SKY/WX    TMP DP  RH WIND       PRES   REMARKS
BUFFALO          N/A     55  46  71 W10       29.89R
FAITH            N/A     60  49  66 W10       29.91R
MOBRIDGE       PTCLDY    59  54  83 N6        29.81R
$$

SDZ012>016-024>037-041>051-057-063-072>074-200700-
SOUTHWEST AND SOUTH CENTRAL SOUTH DAKOTA

CITY           SKY/WX    TMP DP  RH WIND       PRES   REMARKS
RAPID CTY ARPT MOCLDY    65  48  54 NW10      29.99R
PIERRE         CLOUDY    70  52  52 NW14G24   29.83R
CUSTER         MOCLDY    60  43  53 NW3       30.11R
ELLSWORTH AFB  CLOUDY    65  49  57 W7        29.99R
PHILIP         MOCLDY    62  51  67 W3        29.89S
PINE RIDGE     CLEAR     53  51  93 NE3       29.98R
WINNER         FAIR      65  59  81 W6        29.87R
$$

SDZ004>011-016>023-039-040-200700-
NORTHEAST SOUTH DAKOTA

CITY           SKY/WX    TMP DP  RH WIND       PRES   REMARKS
ABERDEEN       PTCLDY    66  54  65 NW12      29.76R
WATERTOWN      PTCLDY    65  54  67 NW10      29.74R
SISSETON         N/A     68  55  63 N15       29.70R
$$

SDZ017-020-022-023-036>040-048>070-200700-
SOUTHEAST SOUTH DAKOTA

CITY           SKY/WX    TMP DP  RH WIND       PRES   REMARKS
SIOUX FALLS    MOCLDY    68  61  78 CALM      29.77R
HURON          CLEAR     62  53  72 NW6       29.76R
CHAMBERLAIN    MOCLDY    69  53  56 NW7       29.83R
MITCHELL       PTCLDY    66  57  72 W7        29.79R
YANKTON        PTCLDY    66  63  88 CALM      29.77R
$$

ABBREVIATIONS USED IN REMARKS
   TC - TEMPERATURE IN CELSIUS
  WCI - WIND CHILL INDEX
   HX - HEAT INDEX
  VSB - VISIBILITY




USA.gov is the U.S. government's official web portal to all federal, state and local government web resources and services.